Weather History for Lancaster, PA

Change the Weather History Date:

Monday, January 14, 2013

  Actual Average Record
Temperature  
Mean Temperature 45 °F -  
Max Temperature 51 °F 38 °F 64 °F (2005)
Min Temperature 39 °F 19 °F 2 °F (1988)
Degree Days  
Heating Degree Days 20    
Moisture  
Dew Point 42 °F    
Average Humidity 85    
Maximum Humidity 100    
Minimum Humidity 50    
Precipitation  
Precipitation 0.19 in - - ()
Sea Level Pressure  
Sea Level Pressure 30.11 in    
Wind  
Wind Speed 5 mph (WNW)    
Max Wind Speed 13 mph    
Max Gust Speed -    
Visibility 4 miles    
Events Fog , Rain    
Averages and records for this station are not official NWS values.
T = Trace of Precipitation, MM = Missing Value Source: NWS Daily Summary

Daily Weather History Graph

Daily Weather History Graph

Search for Another Location

Airport:

Trip Planner

Search our weather history database for the weather conditions in past years. The results will help you decide how hot, cold, wet, or windy it might be!

Date:

Astronomy

Jan. 14, 2013 Rise Set
Actual Time 7:25 AM EST 5:03 PM EST
Civil Twilight 6:55 AM EST 5:33 PM EST
Nautical Twilight 6:22 AM EST 6:06 PM EST
Astronomical Twilight 5:49 AM EST 6:39 PM EST
Moon 8:58 AM EST (1/14) 8:46 PM EST (1/14)
Length of Visible Light 10h 37m
Length of Day
9h 37m
Waxing Crescent, 11% of the Moon is Illuminated
Jan 14
Waxing Crescent
Jan 18
First Quarter
Jan 26
Full
Feb 3
Last Quarter
Feb 10
New

Hourly Weather History & Observations

Time (EST) Temp. Windchill Dew Point Humidity Pressure Visibility Wind Dir Wind Speed Gust Speed Precip Events Conditions
12:53 AM 46.9 °F - 45.0 °F 93% 29.98 in 0.2 mi ENE 3.5 mph - N/A Fog Fog
1:53 AM 46.9 °F - 46.0 °F 97% 29.99 in 0.2 mi Calm Calm - N/A Fog Fog
2:53 AM 48.0 °F - 46.9 °F 96% 30.01 in 0.5 mi North 3.5 mph - 0.04 in Fog , Rain Light Rain
3:04 AM 48.2 °F - 46.4 °F 93% 30.00 in 2.0 mi North 3.5 mph - 0.00 in Rain Light Rain
3:13 AM 48.2 °F - 46.4 °F 93% 30.00 in 1.0 mi North 3.5 mph - 0.00 in Rain Light Rain
3:25 AM 48.2 °F - 46.4 °F 93% 30.00 in 0.5 mi North 4.6 mph - 0.00 in Fog Fog
4:53 AM 46.9 °F - 46.0 °F 97% 29.96 in 0.2 mi Calm Calm - 0.01 in Fog Fog
5:53 AM 48.0 °F - 46.9 °F 96% 29.98 in 0.2 mi Calm Calm - N/A Fog Fog
6:53 AM 46.9 °F - 46.0 °F 97% 30.01 in 0.5 mi NW 3.5 mph - N/A Fog Fog
7:19 AM 46.4 °F 41.1 °F 46.4 °F 100% 30.06 in 1.5 mi WNW 11.5 mph - N/A   Overcast
7:32 AM 48.2 °F - 46.4 °F 93% 30.06 in 0.5 mi WNW 6.9 mph - N/A Fog Fog
7:43 AM 48.2 °F - 46.4 °F 93% 30.07 in 0.2 mi West 6.9 mph - N/A Fog Fog
7:53 AM 48.0 °F - 46.9 °F 96% 30.07 in 0.2 mi WNW 6.9 mph - N/A Fog Fog
8:08 AM 48.2 °F - 46.4 °F 93% 30.07 in 0.2 mi West 5.8 mph - N/A Fog Fog
8:21 AM 48.2 °F - 46.4 °F 93% 30.08 in 1.0 mi West 5.8 mph - N/A   Overcast
8:28 AM 48.2 °F - 46.4 °F 93% 30.09 in 1.2 mi WSW 5.8 mph - N/A   Overcast
8:48 AM 48.2 °F - 46.4 °F 93% 30.10 in 2.0 mi West 8.1 mph - N/A   Overcast
8:53 AM 48.0 °F - 46.9 °F 96% 30.11 in 2.0 mi West 6.9 mph - N/A   Overcast
9:45 AM 48.2 °F - 46.4 °F 93% 30.12 in 3.0 mi West 6.9 mph - N/A   Overcast
9:53 AM 48.9 °F - 48.0 °F 97% 30.13 in 3.0 mi West 6.9 mph - N/A   Overcast
10:53 AM 50.0 °F - 48.0 °F 93% 30.16 in 6.0 mi West 9.2 mph - N/A   Overcast
11:53 AM 51.1 °F - 42.1 °F 71% 30.14 in 10.0 mi NNW 12.7 mph - N/A   Overcast
12:53 PM 50.0 °F - 39.0 °F 66% 30.15 in 10.0 mi NW 12.7 mph - N/A   Overcast
1:53 PM 50.0 °F - 36.0 °F 59% 30.16 in 10.0 mi NNW 5.8 mph - N/A   Overcast
2:53 PM 50.0 °F - 33.1 °F 52% 30.18 in 10.0 mi NNW 12.7 mph - N/A   Overcast
3:53 PM 48.9 °F - 30.9 °F 50% 30.19 in 10.0 mi NW 8.1 mph - N/A   Overcast
5:53 PM 46.9 °F - 34.0 °F 61% 30.22 in 10.0 mi WNW 6.9 mph - N/A   Overcast
6:53 PM 46.9 °F - 32.0 °F 56% 30.25 in 10.0 mi NW 8.1 mph - N/A   Overcast
7:53 PM 45.0 °F 42.6 °F 30.9 °F 58% 30.27 in 10.0 mi NW 4.6 mph - N/A   Overcast
8:53 PM 43.0 °F 39.5 °F 34.0 °F 71% 30.29 in 10.0 mi WNW 5.8 mph - 0.00 in Rain Light Rain
9:53 PM 41.0 °F - 35.1 °F 79% 30.29 in 4.0 mi Calm Calm - 0.07 in Rain Rain
10:53 PM 39.9 °F 37.8 °F 37.0 °F 89% 30.30 in 6.0 mi West 3.5 mph - 0.04 in Rain Light Rain
11:53 PM 39.0 °F - 36.0 °F 89% 30.28 in 5.0 mi Calm Calm - 0.03 in Rain Light Rain